WXM80 ListenWXM80 Stop

You find our weather info also at:

UK Metoffice

WeatherCloud

Weather Underground

Northeastern Weather Network

AWEKAS

Citizen Weather Observer Program (CWOP)

HAMweather, WeatherForYou, PWS Weather


Weather Underground History page Text

Daily Summary for June 8, 2016 Units:  English    Metric   Both
« Previous Day
Next Day »
Daily Weekly Monthly Yearly Custom
  High: Low: Average:
Temperature: 74.6 °F 54.6 °F 62.4 °F
Dew Point: 56.3 °F 47.2 °F 52.3 °F
Humidity: 93 % 46 % 71 %
Wind Speed: 12.1 mph 0.5 mph 5 mph
Wind Gust: 26.5 mph - -
Wind:- - West
Pressure: 29.74 in 29.52 in -
Precipitation: 0.18 in    
Historical Graphs
 
 
Tabular Data for June 8, 2016
Time Temperature Dew Point Pressure Wind Wind Speed Wind Gust Humidity Rainfall Rate (Hourly)
00:01 66.7 °F 55.4 °F 29.52 in SW 2.7 mph 4.6 mph 67 % 0.00 in
00:06 66.6 °F 55.7 °F 29.52 in WNW 2.8 mph 7.0 mph 68 % 0.00 in
00:11 66.4 °F 55.5 °F 29.52 in SW 4.0 mph 10.4 mph 68 % 0.00 in
00:16 66.2 °F 55.3 °F 29.52 in WSW 0.8 mph 2.3 mph 68 % 0.00 in
00:21 66.0 °F 55.1 °F 29.52 in WNW 2.6 mph 9.2 mph 68 % 0.00 in
00:26 65.8 °F 55.3 °F 29.52 in WNW 4.0 mph 5.0 mph 69 % 0.00 in
00:37 65.4 °F 55.0 °F 29.52 in WNW 2.6 mph 10.4 mph 69 % 0.00 in
00:42 65.2 °F 54.8 °F 29.52 in WSW 1.2 mph 6.9 mph 69 % 0.00 in
00:47 65.0 °F 54.6 °F 29.52 in WSW 1.2 mph 3.5 mph 69 % 0.00 in
00:52 64.8 °F 54.4 °F 29.53 in WNW 2.0 mph 5.0 mph 69 % 0.00 in
00:57 64.6 °F 54.6 °F 29.52 in West 3.6 mph 9.2 mph 70 % 0.00 in
01:02 64.5 °F 54.1 °F 29.53 in West 3.8 mph 6.9 mph 69 % 0.00 in
01:07 64.3 °F 53.9 °F 29.53 in NW 2.6 mph 7.0 mph 69 % 0.00 in
01:12 64.2 °F 53.8 °F 29.53 in West 1.6 mph 6.0 mph 69 % 0.00 in
01:17 64.1 °F 53.7 °F 29.53 in West 5.3 mph 6.9 mph 69 % 0.00 in
01:22 64.0 °F 53.6 °F 29.53 in WNW 1.9 mph 6.9 mph 69 % 0.00 in
01:28 63.8 °F 53.4 °F 29.53 in West 2.5 mph 6.9 mph 69 % 0.00 in
01:33 63.7 °F 53.7 °F 29.53 in WNW 2.4 mph 8.1 mph 70 % 0.00 in
01:38 63.6 °F 53.6 °F 29.53 in WNW 6.7 mph 12.7 mph 70 % 0.00 in
01:43 63.5 °F 53.5 °F 29.53 in WNW 4.7 mph 8.1 mph 70 % 0.00 in
01:48 63.4 °F 53.4 °F 29.53 in West 2.6 mph 8.1 mph 70 % 0.00 in
01:53 63.3 °F 53.3 °F 29.53 in West 2.5 mph 6.9 mph 70 % 0.00 in
01:58 63.2 °F 53.3 °F 29.53 in WNW 3.0 mph 6.9 mph 70 % 0.00 in
02:08 63.0 °F 52.7 °F 29.53 in WSW 5.3 mph 11.5 mph 69 % 0.00 in
02:13 63.0 °F 53.1 °F 29.53 in WNW 3.4 mph 4.0 mph 70 % 0.00 in
02:19 62.9 °F 53.4 °F 29.53 in SW 4.1 mph 8.1 mph 71 % 0.00 in
02:24 62.8 °F 53.3 °F 29.53 in WSW 3.5 mph 11.5 mph 71 % 0.00 in
02:29 62.8 °F 53.3 °F 29.54 in West 1.6 mph 3.5 mph 71 % 0.00 in
02:34 62.7 °F 53.5 °F 29.54 in SW 1.3 mph 4.0 mph 72 % 0.00 in
02:39 62.7 °F 53.9 °F 29.54 in West 2.1 mph 6.9 mph 73 % 0.00 in
02:44 62.6 °F 53.8 °F 29.54 in SW 4.5 mph 5.8 mph 73 % 0.00 in
02:49 62.5 °F 53.3 °F 29.54 in West 3.5 mph 9.2 mph 72 % 0.00 in
02:54 62.5 °F 53.7 °F 29.54 in WNW 4.4 mph 12.7 mph 73 % 0.00 in
03:04 62.5 °F 53.7 °F 29.54 in West 4.6 mph 9.2 mph 73 % 0.00 in
03:10 62.5 °F 53.7 °F 29.55 in WSW 5.0 mph 9.2 mph 73 % 0.00 in
03:15 62.5 °F 53.7 °F 29.54 in West 4.2 mph 6.9 mph 73 % 0.00 in
03:20 62.4 °F 53.6 °F 29.55 in SW 4.8 mph 11.5 mph 73 % 0.00 in
03:25 62.4 °F 53.6 °F 29.55 in West 3.5 mph 9.2 mph 73 % 0.00 in
03:30 62.4 °F 53.3 °F 29.54 in West 4.1 mph 10.4 mph 72 % 0.00 in
03:40 62.3 °F 53.2 °F 29.54 in West 5.5 mph 11.5 mph 72 % 0.00 in
03:50 62.2 °F 53.4 °F 29.54 in SW 3.2 mph 8.1 mph 73 % 0.00 in
03:55 62.1 °F 53.3 °F 29.55 in West 5.3 mph 11.5 mph 73 % 0.00 in
04:01 62.1 °F 53.3 °F 29.55 in NW 5.8 mph 12.7 mph 73 % 0.00 in
04:06 62.0 °F 53.2 °F 29.55 in West 2.6 mph 6.9 mph 73 % 0.00 in
04:11 61.9 °F 53.1 °F 29.55 in NW 4.9 mph 10.0 mph 73 % 0.00 in
04:21 61.8 °F 53.4 °F 29.55 in NW 5.0 mph 11.5 mph 74 % 0.00 in
04:26 61.7 °F 53.3 °F 29.55 in SE 6.3 mph 12.7 mph 74 % 0.00 in
04:36 61.6 °F 53.2 °F 29.56 in SW 8.6 mph 15.0 mph 74 % 0.00 in
04:41 61.4 °F 53.4 °F 29.56 in West 8.4 mph 14.0 mph 75 % 0.00 in
04:47 61.3 °F 53.7 °F 29.56 in WSW 4.8 mph 9.2 mph 76 % 0.00 in
04:52 61.1 °F 53.5 °F 29.57 in SW 4.4 mph 7.0 mph 76 % 0.00 in
04:57 61.0 °F 53.4 °F 29.57 in West 4.2 mph 10.4 mph 76 % 0.00 in
05:02 60.8 °F 53.2 °F 29.57 in West 5.0 mph 10.4 mph 76 % 0.00 in
05:07 60.7 °F 53.1 °F 29.57 in NW 4.7 mph 11.5 mph 76 % 0.00 in
05:12 60.6 °F 53.0 °F 29.57 in WSW 3.9 mph 11.5 mph 76 % 0.00 in
05:17 60.5 °F 52.9 °F 29.57 in WNW 3.5 mph 10.4 mph 76 % 0.00 in
05:22 60.5 °F 52.9 °F 29.57 in NW 6.7 mph 13.8 mph 76 % 0.00 in
05:27 60.5 °F 52.9 °F 29.57 in WSW 4.8 mph 6.9 mph 76 % 0.00 in
05:32 60.4 °F 52.8 °F 29.57 in NW 2.3 mph 12.0 mph 76 % 0.00 in
05:38 60.4 °F 52.8 °F 29.57 in NNW 4.0 mph 10.4 mph 76 % 0.00 in
05:43 60.4 °F 52.8 °F 29.58 in NW 6.5 mph 12.7 mph 76 % 0.00 in
05:48 60.3 °F 52.7 °F 29.58 in West 3.8 mph 13.8 mph 76 % 0.00 in
05:53 60.4 °F 52.8 °F 29.58 in WSW 2.9 mph 5.8 mph 76 % 0.00 in
06:03 60.3 °F 52.3 °F 29.58 in WNW 3.6 mph 5.8 mph 75 % 0.00 in
06:08 60.3 °F 52.7 °F 29.58 in NW 1.3 mph 10.0 mph 76 % 0.00 in
06:18 60.3 °F 52.3 °F 29.58 in WSW 0.9 mph 9.2 mph 75 % 0.00 in
06:23 60.4 °F 52.1 °F 29.58 in WNW 4.5 mph 12.0 mph 74 % 0.00 in
06:34 60.7 °F 52.4 °F 29.59 in WSW 3.2 mph 8.1 mph 74 % 0.00 in
06:39 61.0 °F 52.7 °F 29.60 in WNW 3.1 mph 6.9 mph 74 % 0.00 in
06:44 61.2 °F 52.8 °F 29.59 in SW 2.5 mph 6.0 mph 74 % 0.00 in
06:49 61.4 °F 52.7 °F 29.59 in West 2.9 mph 5.8 mph 73 % 0.00 in
06:54 61.7 °F 53.0 °F 29.59 in WSW 3.5 mph 6.9 mph 73 % 0.00 in
06:59 61.9 °F 52.8 °F 29.59 in WSW 2.6 mph 5.8 mph 72 % 0.00 in
07:04 62.3 °F 52.8 °F 29.59 in West 1.2 mph 4.6 mph 71 % 0.00 in
07:09 62.7 °F 53.2 °F 29.59 in West 2.6 mph 4.6 mph 71 % 0.00 in
07:14 63.0 °F 52.7 °F 29.59 in West 2.2 mph 5.8 mph 69 % 0.00 in
07:20 63.1 °F 52.8 °F 29.59 in West 0.5 mph 2.3 mph 69 % 0.00 in
07:25 63.1 °F 52.4 °F 29.58 in West 4.2 mph 8.1 mph 68 % 0.00 in
07:30 63.0 °F 51.5 °F 29.58 in NNW 5.8 mph 11.5 mph 66 % 0.00 in
07:35 63.0 °F 51.9 °F 29.59 in NNW 3.7 mph 11.5 mph 67 % 0.00 in
07:40 63.0 °F 51.5 °F 29.59 in NW 4.7 mph 9.2 mph 66 % 0.00 in
07:45 62.9 °F 51.0 °F 29.58 in West 8.0 mph 16.1 mph 65 % 0.00 in
07:50 62.8 °F 50.9 °F 29.58 in NW 4.8 mph 11.5 mph 65 % 0.00 in
07:55 62.7 °F 51.2 °F 29.58 in West 5.2 mph 9.0 mph 66 % 0.00 in
08:00 62.7 °F 51.6 °F 29.58 in WNW 3.2 mph 6.0 mph 67 % 0.00 in
08:05 62.7 °F 51.6 °F 29.58 in NW 2.1 mph 6.9 mph 67 % 0.00 in
08:10 62.7 °F 51.6 °F 29.58 in West 3.9 mph 5.0 mph 67 % 0.00 in
08:15 62.7 °F 52.0 °F 29.58 in West 3.2 mph 4.6 mph 68 % 0.00 in
08:21 62.9 °F 52.2 °F 29.58 in West 3.2 mph 7.0 mph 68 % 0.00 in
08:26 63.0 °F 52.3 °F 29.58 in WSW 3.3 mph 8.1 mph 68 % 0.00 in
08:31 63.1 °F 52.4 °F 29.58 in WSW 3.3 mph 8.1 mph 68 % 0.00 in
08:36 63.4 °F 52.2 °F 29.58 in SSW 5.9 mph 8.1 mph 67 % 0.00 in
08:41 63.5 °F 51.9 °F 29.58 in SW 4.5 mph 8.1 mph 66 % 0.00 in
08:46 63.6 °F 51.6 °F 29.58 in WSW 5.1 mph 6.0 mph 65 % 0.00 in
08:51 63.7 °F 52.1 °F 29.58 in WSW 4.9 mph 11.0 mph 66 % 0.00 in
08:56 63.9 °F 52.3 °F 29.58 in WNW 3.8 mph 6.9 mph 66 % 0.00 in
09:01 64.0 °F 52.4 °F 29.57 in WNW 2.6 mph 8.1 mph 66 % 0.00 in
09:06 64.1 °F 52.9 °F 29.58 in SW 1.4 mph 3.5 mph 67 % 0.00 in
09:12 64.3 °F 52.3 °F 29.58 in NW 4.4 mph 8.1 mph 65 % 0.00 in
09:17 64.4 °F 52.4 °F 29.58 in SSW 5.3 mph 11.5 mph 65 % 0.00 in
09:22 64.5 °F 52.9 °F 29.58 in SW 3.0 mph 5.8 mph 66 % 0.00 in
09:27 64.7 °F 53.1 °F 29.58 in SW 2.6 mph 8.1 mph 66 % 0.00 in
09:32 64.9 °F 52.8 °F 29.58 in SW 5.2 mph 6.9 mph 65 % 0.00 in
09:37 65.3 °F 53.2 °F 29.59 in SW 6.9 mph 10.0 mph 65 % 0.00 in
09:42 65.7 °F 52.8 °F 29.58 in SW 7.2 mph 11.5 mph 63 % 0.00 in
09:47 66.1 °F 53.1 °F 29.58 in NW 2.5 mph 3.5 mph 63 % 0.00 in
09:52 66.7 °F 53.3 °F 29.58 in South 4.0 mph 8.1 mph 62 % 0.00 in
09:57 67.5 °F 53.6 °F 29.58 in SSW 4.3 mph 6.0 mph 61 % 0.00 in
10:03 68.1 °F 53.2 °F 29.58 in SW 5.1 mph 6.9 mph 59 % 0.00 in
10:08 68.8 °F 52.9 °F 29.58 in WSW 6.7 mph 11.0 mph 57 % 0.00 in
10:13 69.4 °F 53.0 °F 29.58 in SW 3.0 mph 5.8 mph 56 % 0.00 in
10:18 69.9 °F 54.4 °F 29.58 in West 4.1 mph 10.4 mph 58 % 0.00 in
10:23 70.7 °F 54.2 °F 29.58 in SW 6.1 mph 11.5 mph 56 % 0.00 in
10:28 71.4 °F 53.9 °F 29.58 in SW 4.7 mph 7.0 mph 54 % 0.00 in
10:33 71.8 °F 53.2 °F 29.58 in WNW 3.1 mph 5.8 mph 52 % 0.00 in
10:38 72.1 °F 54.0 °F 29.58 in WSW 3.8 mph 9.2 mph 53 % 0.00 in
10:43 72.4 °F 53.8 °F 29.58 in SSW 2.5 mph 11.5 mph 52 % 0.00 in
10:48 72.9 °F 56.3 °F 29.57 in SSW 4.4 mph 7.0 mph 56 % 0.00 in
10:54 73.2 °F 53.4 °F 29.57 in WSW 4.3 mph 6.9 mph 50 % 0.00 in
10:59 73.6 °F 54.9 °F 29.57 in SW 6.4 mph 10.4 mph 52 % 0.00 in
11:04 73.8 °F 52.9 °F 29.57 in SSW 5.8 mph 10.4 mph 48 % 0.00 in
11:09 73.9 °F 53.5 °F 29.56 in SW 5.9 mph 11.5 mph 49 % 0.00 in
11:14 74.0 °F 53.6 °F 29.56 in West 3.1 mph 5.8 mph 49 % 0.00 in
11:19 74.3 °F 54.5 °F 29.56 in SSW 7.1 mph 10.4 mph 50 % 0.00 in
11:24 74.6 °F 56.3 °F 29.56 in SW 4.0 mph 10.0 mph 53 % 0.00 in
11:29 74.4 °F 52.9 °F 29.56 in SW 6.9 mph 10.4 mph 47 % 0.00 in
11:44 73.9 °F 53.5 °F 29.55 in SSW 1.9 mph 5.8 mph 49 % 0.00 in
11:50 73.5 °F 53.2 °F 29.55 in NW 2.9 mph 5.0 mph 49 % 0.00 in
11:55 73.7 °F 51.6 °F 29.55 in WSW 7.7 mph 11.5 mph 46 % 0.00 in
12:00 73.6 °F 52.1 °F 29.55 in SW 5.7 mph 10.4 mph 47 % 0.00 in
12:05 73.3 °F 51.8 °F 29.55 in SW 6.1 mph 10.4 mph 47 % 0.00 in
12:10 73.0 °F 52.7 °F 29.55 in SW 3.3 mph 8.1 mph 49 % 0.00 in
12:15 72.6 °F 52.3 °F 29.55 in SW 2.7 mph 4.6 mph 49 % 0.00 in
12:20 72.1 °F 51.9 °F 29.55 in SW 3.1 mph 5.8 mph 49 % 0.00 in
12:25 71.8 °F 53.2 °F 29.55 in NW 2.5 mph 5.0 mph 52 % 0.00 in
12:30 71.4 °F 52.3 °F 29.55 in WNW 3.7 mph 7.0 mph 51 % 0.00 in
12:35 70.7 °F 51.1 °F 29.55 in WNW 2.8 mph 5.8 mph 50 % 0.00 in
12:41 70.2 °F 52.3 °F 29.55 in WNW 3.0 mph 5.8 mph 53 % 0.00 in
12:46 69.7 °F 51.3 °F 29.55 in WNW 3.3 mph 8.1 mph 52 % 0.00 in
12:56 68.8 °F 53.4 °F 29.55 in South 3.6 mph 12.7 mph 58 % 0.00 in
13:01 68.4 °F 54.9 °F 29.55 in WNW 3.8 mph 9.2 mph 62 % 0.00 in
13:06 67.8 °F 52.9 °F 29.55 in West 3.4 mph 11.5 mph 59 % 0.00 in
13:11 67.3 °F 52.9 °F 29.55 in WSW 6.5 mph 12.0 mph 60 % 0.00 in
13:16 66.8 °F 52.9 °F 29.55 in West 4.2 mph 16.1 mph 61 % 0.00 in
13:21 66.3 °F 53.3 °F 29.55 in West 9.5 mph 16.0 mph 63 % 0.00 in
13:26 65.6 °F 52.7 °F 29.55 in WSW 9.9 mph 16.1 mph 63 % 0.00 in
13:32 64.5 °F 54.1 °F 29.56 in WNW 8.6 mph 17.3 mph 69 % 0.00 in
13:37 63.4 °F 55.0 °F 29.56 in WNW 8.4 mph 13.8 mph 74 % 0.00 in
13:42 62.3 °F 55.4 °F 29.56 in WNW 7.2 mph 18.4 mph 78 % 0.00 in
13:47 61.6 °F 55.4 °F 29.57 in West 9.0 mph 17.3 mph 80 % 0.01 in
13:52 60.8 °F 55.6 °F 29.57 in West 4.9 mph 11.5 mph 83 % 0.02 in
13:57 60.2 °F 55.3 °F 29.57 in West 6.5 mph 15.0 mph 84 % 0.03 in
14:02 59.6 °F 55.4 °F 29.57 in NW 6.3 mph 10.4 mph 86 % 0.05 in
14:07 59.0 °F 55.1 °F 29.57 in NNW 8.5 mph 16.1 mph 87 % 0.05 in
14:12 58.4 °F 54.5 °F 29.57 in SW 9.1 mph 15.0 mph 87 % 0.06 in
14:23 57.5 °F 54.3 °F 29.58 in West 4.7 mph 10.4 mph 89 % 0.07 in
14:33 57.0 °F 53.8 °F 29.59 in WNW 7.8 mph 19.6 mph 89 % 0.07 in
14:38 56.6 °F 53.1 °F 29.59 in North 6.5 mph 13.8 mph 88 % 0.08 in
14:43 56.4 °F 53.2 °F 29.58 in West 6.2 mph 12.7 mph 89 % 0.07 in
14:48 56.3 °F 53.4 °F 29.58 in West 6.8 mph 13.8 mph 90 % 0.08 in
14:53 56.1 °F 52.9 °F 29.58 in West 6.8 mph 17.3 mph 89 % 0.08 in
14:58 55.8 °F 52.6 °F 29.58 in WNW 2.7 mph 11.5 mph 89 % 0.06 in
15:03 55.7 °F 52.8 °F 29.58 in WNW 3.7 mph 8.1 mph 90 % 0.06 in
15:08 55.7 °F 52.8 °F 29.58 in West 5.3 mph 11.5 mph 90 % 0.05 in
15:14 55.7 °F 53.1 °F 29.58 in WSW 5.7 mph 9.2 mph 91 % 0.05 in
15:19 55.5 °F 52.6 °F 29.58 in WSW 7.1 mph 15.0 mph 90 % 0.05 in
15:24 55.3 °F 52.4 °F 29.58 in West 5.9 mph 12.0 mph 90 % 0.05 in
15:29 55.1 °F 52.2 °F 29.58 in WSW 6.3 mph 11.5 mph 90 % 0.06 in
15:34 55.0 °F 52.4 °F 29.59 in SW 6.0 mph 11.5 mph 91 % 0.06 in
15:39 54.9 °F 52.3 °F 29.58 in SW 4.3 mph 13.8 mph 91 % 0.06 in
15:49 54.7 °F 52.1 °F 29.59 in WSW 9.3 mph 11.5 mph 91 % 0.07 in
15:54 54.6 °F 52.0 °F 29.59 in West 5.4 mph 9.2 mph 91 % 0.06 in
15:59 54.6 °F 52.3 °F 29.59 in SW 6.9 mph 12.0 mph 92 % 0.07 in
16:05 54.6 °F 52.3 °F 29.59 in West 4.5 mph 8.1 mph 92 % 0.06 in
16:10 54.6 °F 52.3 °F 29.59 in WSW 5.5 mph 10.4 mph 92 % 0.07 in
16:15 54.7 °F 52.4 °F 29.59 in West 3.8 mph 9.2 mph 92 % 0.07 in
16:20 54.8 °F 52.8 °F 29.58 in West 3.9 mph 9.2 mph 93 % 0.06 in
16:25 54.8 °F 52.8 °F 29.59 in West 7.8 mph 13.8 mph 93 % 0.05 in
16:30 54.8 °F 52.5 °F 29.59 in West 9.6 mph 19.6 mph 92 % 0.05 in
16:35 54.9 °F 52.6 °F 29.59 in WNW 5.7 mph 11.0 mph 92 % 0.04 in
16:40 55.1 °F 53.1 °F 29.59 in West 6.3 mph 11.5 mph 93 % 0.03 in
16:45 55.2 °F 52.9 °F 29.59 in SSW 5.8 mph 19.6 mph 92 % 0.03 in
16:50 55.5 °F 53.2 °F 29.59 in SW 3.9 mph 12.7 mph 92 % 0.02 in
16:56 55.8 °F 53.5 °F 29.59 in WSW 6.2 mph 11.5 mph 92 % 0.02 in
17:01 56.0 °F 53.7 °F 29.59 in WSW 5.5 mph 12.7 mph 92 % 0.01 in
17:06 56.4 °F 54.1 °F 29.59 in SW 2.6 mph 5.8 mph 92 % 0.01 in
17:16 57.2 °F 54.6 °F 29.59 in West 6.8 mph 14.0 mph 91 % 0.00 in
17:21 57.5 °F 54.3 °F 29.59 in NW 9.6 mph 21.0 mph 89 % 0.00 in
17:26 57.8 °F 54.0 °F 29.60 in WSW 5.9 mph 10.4 mph 87 % 0.00 in
17:31 58.2 °F 54.3 °F 29.60 in West 6.3 mph 10.4 mph 87 % 0.00 in
17:36 58.6 °F 54.1 °F 29.60 in WSW 10.2 mph 15.0 mph 85 % 0.00 in
17:42 58.9 °F 54.1 °F 29.60 in WNW 7.0 mph 11.0 mph 84 % 0.00 in
17:47 59.1 °F 53.6 °F 29.60 in WNW 5.8 mph 12.0 mph 82 % 0.00 in
17:52 59.2 °F 52.7 °F 29.60 in NW 9.5 mph 19.6 mph 79 % 0.00 in
17:57 59.3 °F 52.8 °F 29.61 in WNW 5.7 mph 10.4 mph 79 % 0.00 in
18:02 59.4 °F 52.9 °F 29.61 in NNW 6.4 mph 11.5 mph 79 % 0.00 in
18:07 59.6 °F 53.1 °F 29.61 in West 7.4 mph 16.0 mph 79 % 0.00 in
18:12 59.6 °F 52.7 °F 29.61 in SW 7.8 mph 13.0 mph 78 % 0.00 in
18:17 59.7 °F 52.8 °F 29.62 in West 6.9 mph 14.0 mph 78 % 0.00 in
18:22 59.9 °F 53.0 °F 29.62 in SSW 6.0 mph 13.8 mph 78 % 0.00 in
18:27 60.0 °F 52.4 °F 29.62 in WSW 5.7 mph 11.5 mph 76 % 0.00 in
18:33 60.2 °F 52.6 °F 29.62 in West 4.7 mph 10.4 mph 76 % 0.00 in
18:38 60.3 °F 52.3 °F 29.62 in West 10.3 mph 17.3 mph 75 % 0.00 in
18:43 60.4 °F 52.1 °F 29.62 in SW 7.0 mph 13.0 mph 74 % 0.00 in
18:48 60.4 °F 51.7 °F 29.63 in West 4.4 mph 13.8 mph 73 % 0.00 in
18:53 60.5 °F 51.0 °F 29.64 in WNW 8.4 mph 21.9 mph 71 % 0.00 in
18:58 60.7 °F 50.5 °F 29.64 in WNW 7.8 mph 16.1 mph 69 % 0.00 in
19:03 60.7 °F 51.2 °F 29.65 in NNW 5.3 mph 9.0 mph 71 % 0.00 in
19:08 60.7 °F 51.2 °F 29.65 in WNW 5.4 mph 14.0 mph 71 % 0.00 in
19:13 60.7 °F 50.5 °F 29.65 in NW 6.7 mph 15.0 mph 69 % 0.00 in
19:18 60.7 °F 50.5 °F 29.65 in West 7.7 mph 18.4 mph 69 % 0.00 in
19:24 60.8 °F 50.6 °F 29.65 in NW 1.9 mph 11.5 mph 69 % 0.00 in
19:29 60.7 °F 50.1 °F 29.65 in WSW 8.1 mph 13.8 mph 68 % 0.00 in
19:34 60.8 °F 49.8 °F 29.66 in West 5.5 mph 15.0 mph 67 % 0.00 in
19:39 60.9 °F 49.9 °F 29.66 in NW 5.7 mph 11.5 mph 67 % 0.00 in
19:44 60.8 °F 49.8 °F 29.66 in East 1.4 mph 6.9 mph 67 % 0.00 in
19:54 60.6 °F 49.6 °F 29.67 in NW 5.2 mph 10.0 mph 67 % 0.00 in
19:59 60.5 °F 49.9 °F 29.67 in NW 3.3 mph 13.0 mph 68 % 0.00 in
20:04 60.4 °F 49.0 °F 29.67 in WNW 6.1 mph 9.2 mph 66 % 0.00 in
20:09 60.3 °F 49.7 °F 29.67 in WNW 5.2 mph 6.0 mph 68 % 0.00 in
20:15 60.3 °F 49.7 °F 29.68 in NW 4.1 mph 10.0 mph 68 % 0.00 in
20:20 60.2 °F 49.6 °F 29.68 in SW 4.0 mph 10.4 mph 68 % 0.00 in
20:25 60.0 °F 49.0 °F 29.68 in SW 4.4 mph 11.5 mph 67 % 0.00 in
20:30 60.0 °F 49.0 °F 29.68 in WSW 5.4 mph 11.5 mph 67 % 0.00 in
20:35 60.1 °F 48.3 °F 29.68 in NW 6.4 mph 10.4 mph 65 % 0.00 in
20:40 60.2 °F 48.4 °F 29.68 in WNW 6.8 mph 10.4 mph 65 % 0.00 in
20:45 60.2 °F 48.8 °F 29.68 in WSW 6.8 mph 11.5 mph 66 % 0.00 in
20:55 60.1 °F 48.3 °F 29.68 in WSW 4.6 mph 13.8 mph 65 % 0.00 in
21:00 60.1 °F 47.9 °F 29.68 in West 6.8 mph 13.8 mph 64 % 0.00 in
21:06 60.1 °F 48.3 °F 29.68 in WSW 4.7 mph 6.9 mph 65 % 0.00 in
21:16 60.3 °F 48.1 °F 29.69 in NW 7.0 mph 17.3 mph 64 % 0.00 in
21:21 60.2 °F 47.6 °F 29.69 in WNW 8.8 mph 18.4 mph 63 % 0.00 in
21:26 60.2 °F 48.4 °F 29.69 in NNW 7.5 mph 12.7 mph 65 % 0.00 in
21:43 60.1 °F 47.9 °F 29.71 in WNW 3.6 mph 13.0 mph 64 % 0.00 in
21:48 60.1 °F 48.3 °F 29.71 in NNW 5.1 mph 11.5 mph 65 % 0.00 in
21:53 60.0 °F 47.8 °F 29.71 in West 7.5 mph 11.5 mph 64 % 0.00 in
21:58 60.1 °F 47.5 °F 29.71 in WNW 12.1 mph 16.1 mph 63 % 0.00 in
22:03 60.1 °F 47.9 °F 29.71 in NW 5.7 mph 10.4 mph 64 % 0.00 in
22:08 60.0 °F 47.8 °F 29.71 in West 7.5 mph 11.5 mph 64 % 0.00 in
22:13 60.0 °F 48.2 °F 29.72 in NW 8.6 mph 13.0 mph 65 % 0.00 in
22:18 60.0 °F 47.8 °F 29.72 in NW 4.7 mph 17.3 mph 64 % 0.00 in
22:24 60.0 °F 48.2 °F 29.72 in WNW 4.6 mph 12.7 mph 65 % 0.00 in
22:29 60.0 °F 48.6 °F 29.72 in West 4.5 mph 11.5 mph 66 % 0.00 in
22:34 60.0 °F 48.6 °F 29.73 in WNW 10.5 mph 18.4 mph 66 % 0.00 in
22:54 59.6 °F 47.4 °F 29.72 in West 5.8 mph 9.2 mph 64 % 0.00 in
23:04 59.3 °F 47.5 °F 29.73 in WNW 6.7 mph 17.3 mph 65 % 0.00 in
23:09 59.2 °F 47.8 °F 29.73 in WSW 5.8 mph 13.8 mph 66 % 0.00 in
23:15 59.1 °F 48.1 °F 29.73 in West 6.2 mph 12.0 mph 67 % 0.00 in
23:20 59.0 °F 47.2 °F 29.74 in NNW 7.6 mph 26.5 mph 65 % 0.00 in
23:25 58.9 °F 48.0 °F 29.74 in WSW 7.8 mph 12.7 mph 67 % 0.00 in
23:35 58.8 °F 47.5 °F 29.74 in NW 8.8 mph 16.1 mph 66 % 0.00 in
23:40 58.7 °F 47.4 °F 29.74 in WNW 8.0 mph 13.8 mph 66 % 0.00 in
23:45 58.6 °F 47.7 °F 29.74 in WNW 4.7 mph 11.0 mph 67 % 0.00 in
23:50 58.6 °F 47.7 °F 29.74 in NW 9.1 mph 17.0 mph 67 % 0.00 in
Crab Meadow Weather
Compliments of Weather Underground - 2.75 mb

Script developed by  Jim McMurry - jmcmurry@mwt.net Adapted for the template by  Wim van der Kuil - Leuven-Template.eu

Recycling: An estimated 80,000,000 Hershey's Kisses are wrapped each day, using enough aluminum foil to cover over 50 acres of space -- that's almost 40 football fields. All that foil is recyclable, but not many people realize it.